GW0639 Weather Reports


time (UTC)temp
F
wind
direction
speed
knots
gust
knots
rain 1hr
in
rain 24hr
in
rain mn
in
humidity
%
barometer
mb
20260506001541 67 198 1.7 7.8 0.00 0.00 0.00 60 1011.9
20260506000041 67 194 1.7 10.4 0.00 0.00 0.00 59 1011.7
20260505231557 70 186 2.6 9.6 0.00 0.00 0.00 56 1011.1
20260505230041 71 195 2.6 7.8 0.00 0.00 0.00 55 1011.0
20260505224541 71 220 2.6 8.7 0.00 0.00 0.00 54 1010.7
20260505221541 73 193 2.6 11.3 0.00 0.00 0.00 51 1010.4
20260505220041 74 179 3.5 9.6 0.00 0.00 0.00 50 1010.5
20260505214540 75 198 3.5 11.3 0.00 0.00 0.00 49 1010.5
20260505213039 75 199 3.5 9.6 0.00 0.00 0.00 49 1010.5
20260505211540 76 210 3.5 9.6 0.00 0.00 0.00 47 1010.4
20260505210040 77 194 2.6 7.0 0.00 0.00 0.00 47 1010.3
20260505203043 78 206 3.5 11.3 0.00 0.00 0.00 46 1010.2
20260505201541 78 209 4.3 13.9 0.00 0.00 0.00 45 1010.3
20260505194540 79 197 3.5 11.3 0.00 0.00 0.00 45 1010.2
20260505192030 80 222 3.5 13.0 0.00 0.00 0.00 44 1010.5
20260505184539 81 210 3.5 9.6 0.00 0.00 0.00 43 1010.8
20260505183041 80 207 3.5 10.4 0.00 0.00 0.00 44 1010.8
20260505181541 80 254 1.7 6.1 0.00 0.00 0.00 44 1010.8
20260505180040 79 246 2.6 8.7 0.00 0.00 0.00 45 1010.8
20260505174539 78 199 2.6 9.6 0.00 0.00 0.00 47 1011.0
20260505171540 77 197 3.5 11.3 0.00 0.00 0.00 47 1011.4
20260505170043 77 215 3.5 8.7 0.00 0.00 0.00 47 1011.6
20260505164540 77 210 2.6 9.6 0.00 0.00 0.00 49 1011.9
20260505163041 76 209 2.6 7.8 0.00 0.00 0.00 50 1012.1
20260505153038 72 199 2.6 8.7 0.00 0.00 0.00 56 1013.2
20260505151541 71 230 2.6 7.8 0.00 0.00 0.00 58 1013.2
20260505124540 60 178 0.9 4.3 0.00 0.00 0.00 74 1014.0
20260505123057 60 199 1.7 6.1 0.00 0.00 0.00 75 1013.9
20260505121540 59 243 0.0 3.5 0.00 0.00 0.00 78 1014.1
20260505120040 57 216 0.9 5.2 0.00 0.00 0.00 81 1014.1
20260505114539 55 230 0.0 5.2 0.00 0.00 0.00 84 1014.2
20260505113039 54 210 0.9 5.2 0.00 0.00 0.00 85 1014.1
20260505111554 53 207 0.0 4.3 0.00 0.00 0.00 87 1013.9
20260505101538 51 171 0.0 0.9 0.00 0.00 0.00 86 1013.4
20260505100051 51 202 0.0 2.6 0.00 0.00 0.00 86 1013.3
20260505094540 51 191 0.0 1.7 0.00 0.00 0.00 85 1013.2
20260505091540 51 164 0.0 0.9 0.00 0.00 0.00 85 1013.2
20260505090040 51 190 0.0 4.3 0.00 0.00 0.00 84 1013.2
20260505084540 52 177 0.0 3.5 0.00 0.00 0.00 84 1013.2
20260505083039 51 187 0.0 1.7 0.00 0.00 0.00 83 1013.3
20260505081540 51 191 0.0 3.5 0.00 0.00 0.00 83 1013.3
20260505080038 51 175 0.0 2.6 0.00 0.00 0.00 83 1013.4
20260505074540 52 180 0.0 0.0 0.00 0.00 0.00 82 1013.5
20260505073041 51 165 0.0 3.5 0.00 0.00 0.00 82 1013.4
20260505071539 50 183 0.0 2.6 0.00 0.00 0.00 84 1013.5
20260505070038 49 197 0.0 3.5 0.00 0.00 0.00 84 1013.4
20260505061539 50 202 0.0 0.0 0.00 0.00 0.00 80 1013.7
20260505060040 51 146 0.0 0.9 0.00 0.00 0.00 78 1013.8
20260505054540 52 135 0.0 0.0 0.00 0.00 0.00 76 1013.9
20260505053039 53 150 0.0 0.0 0.00 0.00 0.00 75 1013.9
20260505051540 53 177 0.0 2.6 0.00 0.00 0.00 75 1014.1
20260505041538 54 207 0.0 3.5 0.00 0.00 0.00 74 1014.3
20260505040051 54 176 0.0 2.6 0.00 0.00 0.00 73 1014.2
20260505034534 54 210 0.0 3.5 0.00 0.00 0.00 73 1014.2
20260505033017 55 192 0.0 3.5 0.00 0.00 0.00 72 1014.2
20260505031517 55 176 0.0 3.5 0.00 0.00 0.00 71 1014.1
20260505030038 55 205 0.0 3.5 0.00 0.00 0.00 70 1014.1
20260505024518 56 187 0.9 4.3 0.00 0.00 0.00 69 1014.1
20260505021536 56 206 0.9 7.0 0.00 0.00 0.00 66 1014.1
20260505020019 57 192 0.9 7.0 0.00 0.00 0.00 64 1014.0
20260505014517 57 194 1.7 6.1 0.00 0.00 0.00 62 1014.0
20260505013017 58 190 1.7 7.0 0.00 0.00 0.00 61 1013.9
20260505011517 59 196 1.7 7.0 0.00 0.00 0.00 59 1013.6
20260505004519 60 190 1.7 6.1 0.00 0.00 0.00 56 1013.1